Fairfield, NJ

10:58 AM EST on February 24, 2017 (GMT -0500)
Essex County

Weather History for KCDW - April, 2013

Change the Weather History Date:

Saturday, April 6, 2013

  Actual Average Record
Temperature  
Mean Temperature 42 °F -  
Max Temperature 53 °F 56 °F 81 °F (1985)
Min Temperature 33 °F 34 °F 22 °F (1982)
Degree Days  
Heating Degree Days 22    
Moisture  
Dew Point 13 °F    
Average Humidity 33    
Maximum Humidity 54    
Minimum Humidity 14    
Precipitation  
Precipitation 0.00 in - - ()
Sea Level Pressure  
Sea Level Pressure 30.25 in    
Wind  
Wind Speed 8 mph (WNW)    
Max Wind Speed 12 mph    
Max Gust Speed 24 mph    
Visibility 10 miles    
Events      
Averages and records for this station are not official NWS values.
T = Trace of Precipitation, MM = Missing Value Source: NWS Daily Summary

Daily Weather History Graph

Daily Weather History Graph

Search for Another Location

Airport or City:

Trip Planner

Search our weather history database for the weather conditions in past years. The results will help you decide how hot, cold, wet, or windy it might be!

Date:

Astronomy

Apr. 06, 2013 Rise Set
Actual Time 6:32 AM EDT 7:27 PM EDT
Civil Twilight 6:04 AM EDT 7:55 PM EDT
Nautical Twilight 5:30 AM EDT 8:28 PM EDT
Astronomical Twilight 4:56 AM EDT 9:03 PM EDT
Moon 4:15 AM EDT (4/6) 3:52 PM EDT (4/6)
Length of Visible Light 13h 51m
Length of Day
12h 55m
Waning Crescent, 15% of the Moon is Illuminated
Apr 6
Waning Crescent
Apr 10
New
Apr 18
First Quarter
Apr 25
Full
May 2
Last Quarter

Hourly Weather History & Observations

Time (EDT) Temp. Windchill Dew Point Humidity Pressure Visibility Wind Dir Wind Speed Gust Speed Precip Events Conditions
12:53 AM 39.9 °F 32.9 °F 17.1 °F 40% 30.05 in 10.0 mi NNW 11.5 mph 18.4 mph N/A   Clear
1:53 AM 37.9 °F 30.5 °F 17.1 °F 43% 30.09 in 10.0 mi NW 11.5 mph 21.9 mph N/A   Clear
2:53 AM 37.0 °F 31.0 °F 15.1 °F 41% 30.09 in 10.0 mi NNW 8.1 mph 17.3 mph N/A   Clear
3:53 AM 36.0 °F 28.5 °F 14.0 °F 41% 30.12 in 10.0 mi NNW 10.4 mph - N/A   Clear
4:53 AM 35.1 °F 29.3 °F 16.0 °F 46% 30.15 in 10.0 mi NNW 6.9 mph 21.9 mph N/A   Clear
5:53 AM 34.0 °F 26.6 °F 17.1 °F 50% 30.18 in 10.0 mi NNW 9.2 mph - N/A   Clear
6:53 AM 33.1 °F 30.0 °F 18.0 °F 54% 30.22 in 10.0 mi Variable 3.5 mph - N/A   Clear
7:53 AM 36.0 °F 33.3 °F 17.1 °F 46% 30.26 in 10.0 mi Variable 3.5 mph - N/A   Clear
8:53 AM 37.0 °F 29.8 °F 9.0 °F 31% 30.28 in 10.0 mi NNE 10.4 mph 18.4 mph N/A   Clear
9:53 AM 39.9 °F 34.5 °F 7.0 °F 26% 30.31 in 10.0 mi NNW 8.1 mph 19.6 mph N/A   Clear
10:53 AM 42.1 °F 38.4 °F 7.0 °F 24% 30.32 in 10.0 mi Variable 5.8 mph - N/A   Clear
11:53 AM 44.1 °F 40.8 °F 5.0 °F 20% 30.32 in 10.0 mi Variable 5.8 mph 24.2 mph N/A   Clear
12:53 PM 46.0 °F 43.9 °F 5.0 °F 19% 30.30 in 10.0 mi Variable 4.6 mph 16.1 mph N/A   Clear
1:53 PM 48.0 °F - 6.1 °F 18% 30.29 in 10.0 mi Variable 3.5 mph - N/A   Clear
2:53 PM 48.9 °F - 3.0 °F 15% 30.28 in 10.0 mi WNW 9.2 mph - N/A   Clear
3:53 PM 51.1 °F - 3.9 °F 15% 30.27 in 10.0 mi West 9.2 mph - N/A   Clear
4:53 PM 52.0 °F - 3.0 °F 14% 30.27 in 10.0 mi Variable 4.6 mph - N/A   Clear
5:53 PM 52.0 °F - 3.9 °F 14% 30.28 in 10.0 mi Calm Calm - N/A   Clear
6:53 PM 52.0 °F - 7.0 °F 16% 30.29 in 10.0 mi SW 4.6 mph - N/A   Clear
7:53 PM 46.9 °F - 21.9 °F 37% 30.30 in 10.0 mi SSE 9.2 mph - N/A   Clear
8:53 PM 46.0 °F 42.5 °F 24.1 °F 42% 30.31 in 10.0 mi South 6.9 mph - N/A   Clear
9:53 PM 45.0 °F 43.5 °F 23.0 °F 42% 30.32 in 10.0 mi SSW 3.5 mph - N/A   Clear
10:53 PM 43.0 °F - 25.0 °F 49% 30.32 in 10.0 mi Calm Calm - N/A   Clear
11:53 PM 41.0 °F - 25.0 °F 53% 30.32 in 10.0 mi Calm Calm - N/A   Clear